Satellite: FO-70
Catalog number: 37380
Epoch time:      11355.54659957
Element set:    0058
Inclination:      071.9738 deg
RA of node:       346.4259 deg
Eccentricity:    0.0019308
Arg of perigee:   287.8571 deg
Mean anomaly:     072.0507 deg
Mean motion:   14.76615138 rev/day
Decay rate:       7.74e-06 rev/day^2
Epoch rev:           00961
Checksum:              340

/EX
SB KEPS @ AMSAT  $ORB11355.W
Orbital Elements  11355.WEATHER

HR AMSAT ORBITAL ELEMENTS FOR WEATHER SATELLITES
FROM WA5QGD FORT WORTH,TX December 21, 2011
Send Subscribe/unsubscribe to KEPS at http://www.amsat.org/mailman/listinfo/kep
BID: ORB11355.W
TO ALL RADIO AMATEURS BT

Satellite: NOAA-10
Catalog number: 16969
Epoch time:      11355.63927707
Element set:     752
Inclination:      098.6015 deg
RA of node:       022.7013 deg
Eccentricity:    0.0012892
Arg of perigee:   039.7883 deg
Mean anomaly:     320.4238 deg
Mean motion:   14.27513487 rev/day
Decay rate:        5.4e-07 rev/day^2
Epoch rev:           31439
Checksum:              310

Satellite: NOAA-11
Catalog number: 19531
Epoch time:      11355.31134692
Element set:     752
Inclination:      098.7435 deg
RA of node:       079.1647 deg
Eccentricity:    0.0011714
Arg of perigee:   017.9306 deg
Mean anomaly:     342.2287 deg
Mean motion:   14.14945186 rev/day
Decay rate:       -7.9e-07 rev/day^2
Epoch rev:           19921
Checksum:              310

Satellite: NOAA-12
Catalog number: 21263
Epoch time:      11355.69117249
Element set:     242
Inclination:      098.7416 deg
RA of node:       013.0847 deg
Eccentricity:    0.0014144
Arg of perigee:   003.4858 deg
Mean anomaly:     356.6418 deg
Mean motion:   14.25466195 rev/day
Decay rate:        6.9e-07 rev/day^2
Epoch rev:            7112
Checksum:              292

Satellite: MET-3/5
Catalog number: 21655
Epoch time:      11354.56041925
Element set:    0291
Inclination:      082.5590 deg
RA of node:       279.0863 deg
Eccentricity:    0.0014633
Arg of perigee:   054.1586 deg
Mean anomaly:     306.0889 deg
Mean motion:   13.17032106 rev/day
Decay rate:        5.1e-07 rev/day^2
Epoch rev:           97825
Checksum:              301

Satellite: MET-2/21
Catalog number: 22782
Epoch time:      11354.60596924
Element set:    0289
Inclination:      082.5460 deg
RA of node:       174.9826 deg
Eccentricity:    0.0021295
Arg of perigee:   298.2124 deg
Mean anomaly:     061.6880 deg
Mean motion:   13.83670722 rev/day
Decay rate:       -5.5e-07 rev/day^2
Epoch rev:           92433
Checksum:              320

Satellite: OKEAN-4
Catalog number: 23317
Epoch time:      11355.91372958
Element set:     755
Inclination:      082.5403 deg
RA of node:       197.8090 deg
Eccentricity:    0.0020370
Arg of perigee:   217.3095 deg
Mean anomaly:     142.6707 deg
Mean motion:   14.83470829 rev/day
Decay rate:       9.74e-06 rev/day^2
Epoch rev:           92837
Checksum:              323

Satellite: NOAA-14
Catalog number: 23455
Epoch time:      11355.71506468
Element set:     723
Inclination:      098.8410 deg
RA of node:       076.3806 deg
Eccentricity:    0.0010093
Arg of perigee:   104.8003 deg
Mean anomaly:     255.4289 deg
Mean motion:   14.13864806 rev/day
Decay rate:        9.0e-07 rev/day^2
Epoch rev:           87557
Checksum:              305

Satellite: NOAA-15
Catalog number: 25338
Epoch time:      11355.43471990
Element set:      72
Inclination:      098.6744 deg
RA of node:       339.2012 deg
Eccentricity:    0.0009841
Arg of perigee:   268.9859 deg
Mean anomaly:     091.0217 deg
Mean motion:   14.25008576 rev/day
Decay rate:       1.97e-06 rev/day^2
Epoch rev:           70739
Checksum:              326

Satellite: RESURS
Catalog number: 25394
Epoch time:      11354.98010929
Element set:    0995
Inclination:      098.3072 deg
RA of node:       347.7884 deg
Eccentricity:    0.0002320
Arg of perigee:   053.7189 deg
Mean anomaly:     306.4205 deg
Mean motion:   14.24264642 rev/day
Decay rate:        6.5e-07 rev/day^2
Epoch rev:           69889
Checksum:              324

Satellite: FENGYUN1
Catalog number: 25730
Epoch time:      11354.95240837
Element set:    0497
Inclination:      098.8316 deg
RA of node:       312.2372 deg
Eccentricity:    0.0021324
Arg of perigee:   154.0014 deg
Mean anomaly:     206.2231 deg
Mean motion:   14.09120570 rev/day
Decay rate:       3.04e-06 rev/day^2
Epoch rev:           64936
Checksum:              261

Satellite: OKEAN-0
Catalog number: 25860
Epoch time:      11354.99458270
Element set:    0516
Inclination:      097.9105 deg
RA of node:       316.5948 deg
Eccentricity:    0.0001824
Arg of perigee:   079.8177 deg
Mean anomaly:     280.3237 deg
Mean motion:   14.74022566 rev/day
Decay rate:       7.16e-06 rev/day^2
Epoch rev:           66817
Checksum:              326

Satellite: NOAA-16
Catalog number: 26536
Epoch time:      11355.41723911
Element set:     555
Inclination:      099.1208 deg
RA of node:       029.5738 deg
Eccentricity:    0.0010067
Arg of perigee:   224.0233 deg
Mean anomaly:     136.0127 deg
Mean motion:   14.12686968 rev/day
Decay rate:        8.0e-08 rev/day^2
Epoch rev:           57979
Checksum:              308

